Flag for Austria Weather past 2 weeks in Klagenfurt, Carinthia, Austria

Now
36 °F

Fog.


Feels Like: 36 °F
Forecast: 41 / 51 °F
Wind: 2 mph from North

Location: Klagenfurt-Flughafen

Current Time: Dec 19, 2014 at 7:28:00 PM

Latest Report: Dec 19, 2014 at 6:50 PM


Visibility: 0 mi

Pressure: 30.07 "Hg

Humidity: 100%

Dew point: 36 °F

Location of KlagenfurtLocation

Historic Weather in Klagenfurt — Graph

°F

Klagenfurt temperature yesterday

Maximum temperature yesterday: 43 °F (at 12:50 PM)
Minimum temperature yesterday: 37 °F (at 2:50 AM)
Average temperature yesterday: 40 °F

Past Weeks' High & Low Weather Summary

 TemperatureHumidityPressure
High43 °F (Dec 5, 12:20 PM)100% (Dec 4, 9:50 PM)30.30 "Hg (Dec 4, 9:50 PM)
Low23 °F (Dec 10, 7:20 AM)65% (Dec 10, 2:20 PM)29.86 "Hg (Dec 16, 5:20 PM)
Average35 °F94%30.07 "Hg
* Reported Dec 4 6:20 PM — Dec 19 6:20 PM, Klagenfurt, Weather by CustomWeather, © 2014

Note: Actual official high and low records may vary slightly from our data, if they occured in-between our weather recording intervals... More about our weather records

Advertising

Klagenfurt weather history for previous 24 hours

 ConditionsComfort  
Time TempWeatherWind HumidityBarometerVisibility
6:20 PM
Dec 19
36 °FFog.1 mph100%30.07 "Hg0 mi
5:50 PM36 °FFog.1 mph100%30.07 "Hg0 mi
5:20 PM36 °FFog.1 mph100%30.07 "Hg0 mi
4:50 PM36 °FFog.2 mph100%30.07 "Hg0 mi
4:20 PM37 °FFog.2 mph100%30.07 "Hg0 mi
3:50 PM37 °FFog.3 mph100%30.07 "Hg0 mi
3:20 PM37 °FFog.3 mph100%30.07 "Hg0 mi
2:50 PM37 °FFog.3 mph100%30.07 "Hg0 mi
2:20 PM37 °FSunny.3 mph100%30.09 "Hg1 mi
1:50 PM37 °FPartly sunny.5 mph100%30.09 "Hg1 mi
1:20 PM37 °FSunny.5 mph100%30.09 "Hg1 mi
12:50 PM37 °FSleet. Sunny.5 mph100%30.12 "Hg2 mi
12:20 PM36 °FFog.3 mph100%30.12 "Hg1 mi
11:50 AM36 °FFog.3 mph100%30.15 "Hg1 mi
11:20 AM37 °FFog.5 mph93%30.15 "Hg0 mi
10:50 AM37 °FSleet. Light fog.5 mph93%30.15 "Hg2 mi
10:20 AM37 °FSleet. Fog.1 mph100%30.15 "HgN/A
9:50 AM34 °FSunny.5 mph100%30.18 "Hg1 mi
9:20 AM32 °FFog.6 mph100%30.18 "Hg1 mi
8:50 AM32 °FFog.2 mph100%30.18 "Hg1 mi
8:20 AM32 °FLight fog.2 mph100%30.18 "Hg1 mi
7:50 AM32 °FScattered clouds.6 mph100%30.15 "Hg1 mi
7:20 AM32 °FPassing clouds.3 mph100%30.15 "Hg1 mi
6:50 AM32 °FPassing clouds.2 mph100%30.15 "Hg4 mi
6:20 AM34 °FPassing clouds.2 mph93%30.15 "Hg4 mi
5:50 AM34 °FPassing clouds.3 mph93%30.15 "Hg4 mi
5:20 AM34 °FPassing clouds.3 mph100%30.15 "Hg4 mi
4:50 AM34 °FPartly cloudy.3 mph100%30.15 "Hg4 mi
4:20 AM34 °FPartly cloudy.3 mph100%30.15 "Hg4 mi
3:50 AM34 °FPassing clouds.3 mph100%30.15 "Hg4 mi
3:20 AM36 °FFog.2 mph93%30.15 "Hg4 mi
2:50 AM36 °FPassing clouds.3 mph93%30.15 "Hg5 mi
2:20 AM36 °FPassing clouds.3 mph100%30.15 "Hg6 mi
1:50 AM36 °FPassing clouds.6 mph100%30.15 "Hg4 mi
1:20 AM37 °FPassing clouds.5 mph93%30.15 "Hg5 mi
12:50 AM37 °FPassing clouds.2 mph93%30.15 "Hg6 mi
12:20 AM37 °FClear.3 mph93%30.15 "Hg10 mi
11:50 PM
Dec 18
39 °FPassing clouds.2 mph87%30.15 "HgN/A
11:20 PM39 °FMostly cloudy.3 mph87%30.15 "HgN/A
10:50 PM39 °FPassing clouds.3 mph93%30.15 "HgN/A
10:20 PM39 °FOvercast.2 mph93%30.15 "HgN/A
9:50 PM39 °FMostly cloudy.2 mph87%30.12 "HgN/A
9:20 PM39 °FPassing clouds.1 mph93%30.12 "HgN/A
8:50 PM39 °FPassing clouds.3 mph93%30.12 "HgN/A
8:20 PM39 °FPassing clouds.3 mph93%30.12 "HgN/A
7:50 PM39 °FPassing clouds.2 mph93%30.12 "HgN/A
7:20 PM41 °FPassing clouds.2 mph81%30.12 "HgN/A
Weather by CustomWeather, © 2014

See weather overviewHow to use our weather pages